Location: Praha
(50.0833°N, 14.4667°E)
Time: 07:28:08
(UTC+01:00)

ISS - Visible Passes

Search period start: 22 January 2019 00:00
Search period end: 01 February 2019 00:00
Orbit: 404 x 410 km, 51.6° (Epoch: 22 January)

Date Brightness Start Highest point End Pass type
(mag) Time Alt. Az. Time Alt. Az. Time Alt. Az.
23 Jan -1.9 18:39:15 10° SSW 18:41:05 20° SSE 18:41:05 20° SSE visible
24 Jan -1.6 17:48:55 10° S 17:50:45 14° SE 17:52:04 12° ESE visible
24 Jan -1.4 19:23:31 10° SW 19:24:48 21° SW 19:24:48 21° SW visible
25 Jan -3.2 18:32:23 10° SW 18:35:29 40° SSE 18:35:43 39° SE visible
26 Jan -2.4 17:41:26 10° SSW 17:44:15 27° SE 17:46:33 13° E visible
26 Jan -2.2 19:17:14 10° WSW 19:19:16 35° WSW 19:19:16 35° WSW visible
27 Jan -3.8 18:25:53 10° WSW 18:29:11 70° SSE 18:30:03 44° E visible
27 Jan -0.3 20:02:30 10° W 20:02:46 12° W 20:02:46 12° W visible
28 Jan -3.3 17:34:38 10° SW 17:37:50 48° SSE 17:40:47 12° E visible
28 Jan -2.7 19:11:03 10° W 19:13:30 45° WNW 19:13:30 45° WNW visible
29 Jan -3.8 18:19:36 10° W 18:22:54 80° NNW 18:24:13 34° ENE visible
29 Jan -0.6 19:56:18 10° WNW 19:56:55 15° WNW 19:56:55 15° WNW visible
30 Jan -3.8 17:28:10 10° WSW 17:31:29 80° SSE 17:34:48 10° ENE visible
30 Jan -3.2 19:04:50 10° W 19:07:36 53° NW 19:07:36 53° NW visible
31 Jan -3.7 18:13:21 10° W 18:16:39 66° N 18:18:17 27° ENE visible
31 Jan -0.9 19:50:00 10° WNW 19:50:59 18° WNW 19:50:59 18° WNW visible
